Weather History for KETC - September, 2013

Change the Weather History Date:

Wednesday, September 11, 2013

  Actual Average Record
Temperature  
Mean Temperature 76 °F -  
Max Temperature 89 °F 86 °F 100 °F (1983)
Min Temperature 64 °F 59 °F 42 °F (1976)
Cooling Degree Days 12    
Growing Degree Days 26 (Base 50)    
Moisture  
Dew Point 68 °F    
Average Humidity 77    
Maximum Humidity 96    
Minimum Humidity 51    
Precipitation  
Precipitation 0.00 in - - ()
Sea Level Pressure  
Sea Level Pressure 30.16 in    
Wind  
Wind Speed 1 mph (SSW)    
Max Wind Speed 6 mph    
Max Gust Speed -    
Visibility 7 miles    
Events Fog    
Averages and records for this station are not official NWS values.
T = Trace of Precipitation, MM = Missing Value Source: NWS Daily Summary

Daily Weather History Graph

Daily Weather History Graph

Search for Another Location

Airport or City:

Trip Planner

Search our weather history database for the weather conditions in past years. The results will help you decide how hot, cold, wet, or windy it might be!

Date:

Astronomy

Sep. 11, 2013 Rise Set
Actual Time 6:49 AM EDT 7:22 PM EDT
Civil Twilight 6:24 AM EDT 7:48 PM EDT
Nautical Twilight 5:53 AM EDT 8:18 PM EDT
Astronomical Twilight 5:22 AM EDT 8:49 PM EDT
Moon 1:03 PM EDT (9/11) 11:29 PM EDT (9/11)
Length of Visible Light 13h 24m
Length of Day
12h 33m
Waxing Crescent, 38% of the Moon is Illuminated
Sep 11
Waxing Crescent
Sep 12
First Quarter
Sep 19
Full
Sep 26
Last Quarter
Oct 4
New

Hourly Weather History & Observations

Time (EDT) Temp. Heat Index Dew Point Humidity Pressure Visibility Wind Dir Wind Speed Gust Speed Precip Events Conditions
12:15 AM 69.1 °F - 66.2 °F 91% 30.21 in 4.0 mi Calm Calm - N/A   Clear
12:35 AM 68.9 °F - 66.9 °F 93% 30.21 in 2.5 mi Calm Calm - N/A   Clear
12:55 AM 68.5 °F - 66.6 °F 93% 30.21 in 5.0 mi Calm Calm - N/A   Clear
1:15 AM 67.8 °F - 65.8 °F 93% 30.21 in 2.0 mi Calm Calm - N/A   Clear
1:35 AM 68.0 °F - 66.4 °F 95% 30.20 in 1.2 mi Calm Calm - N/A   Mist
1:55 AM 67.8 °F - 66.2 °F 95% 30.20 in 2.0 mi Calm Calm - N/A   Clear
2:15 AM 67.6 °F - 66.0 °F 95% 30.20 in 1.2 mi Calm Calm - N/A   Mist
2:35 AM 66.7 °F - 65.1 °F 95% 30.20 in 0.2 mi Calm Calm - N/A Fog Fog
2:55 AM 66.2 °F - 64.8 °F 95% 30.19 in 1.0 mi Calm Calm - N/A   Overcast
3:15 AM 65.7 °F - 64.4 °F 96% 30.19 in 0.2 mi Calm Calm - N/A Fog Fog
3:35 AM 65.8 °F - 64.6 °F 96% 30.19 in 1.2 mi Calm Calm - N/A   Scattered Clouds
3:55 AM 65.7 °F - 64.2 °F 95% 30.18 in 1.0 mi Calm Calm - N/A   Mist
4:15 AM 65.7 °F - 64.4 °F 96% 30.19 in 1.0 mi Calm Calm - N/A   Mist
4:35 AM 65.7 °F - 64.2 °F 95% 30.18 in 0.8 mi Calm Calm - N/A   Mist
4:55 AM 65.5 °F - 64.2 °F 96% 30.19 in 0.2 mi Calm Calm - N/A Fog Fog
5:15 AM 65.5 °F - 64.0 °F 95% 30.19 in 0.8 mi Calm Calm - N/A   Mostly Cloudy
5:35 AM 65.1 °F - 63.7 °F 95% 30.19 in 1.2 mi Calm Calm - N/A   Mist
5:55 AM 64.9 °F - 63.5 °F 95% 30.19 in 1.2 mi Calm Calm - N/A   Mist
6:15 AM 64.9 °F - 63.5 °F 95% 30.19 in 0.8 mi Calm Calm - N/A   Mostly Cloudy
6:35 AM 64.8 °F - 63.3 °F 95% 30.20 in 1.5 mi Calm Calm - N/A   Mostly Cloudy
6:55 AM 64.8 °F - 63.3 °F 95% 30.20 in 1.8 mi Calm Calm - N/A   Scattered Clouds
7:15 AM 65.3 °F - 63.9 °F 95% 30.20 in 0.5 mi Calm Calm - N/A Fog Fog
7:35 AM 65.3 °F - 63.9 °F 95% 30.21 in 2.0 mi Calm Calm - N/A   Clear
7:55 AM 66.4 °F - 65.1 °F 96% 30.21 in 2.0 mi Calm Calm - N/A   Scattered Clouds
8:15 AM 67.8 °F - 66.6 °F 96% 30.21 in 2.5 mi Calm Calm - N/A   Scattered Clouds
8:35 AM 70.0 °F - 68.2 °F 94% 30.21 in 5.0 mi Calm Calm - N/A   Scattered Clouds
8:55 AM 73.2 °F - 69.4 °F 88% 30.21 in 7.0 mi Calm Calm - N/A   Scattered Clouds
9:15 AM 75.2 °F - 70.2 °F 84% 30.21 in 7.0 mi Calm Calm - N/A   Scattered Clouds
9:35 AM 77.5 °F - 71.2 °F 81% 30.21 in 10.0 mi WSW 4.6 mph - N/A   Clear
9:55 AM 79.7 °F - 71.2 °F 75% 30.21 in 10.0 mi SW 5.8 mph - N/A   Clear
10:15 AM 81.3 °F 85.0 °F 70.3 °F 69% 30.21 in 10.0 mi SSW 4.6 mph - N/A   Clear
10:35 AM 82.2 °F 86.2 °F 70.3 °F 67% 30.21 in 10.0 mi Calm Calm - N/A   Clear
10:55 AM 82.6 °F 86.4 °F 69.6 °F 65% 30.21 in 10.0 mi SSW 3.5 mph - N/A   Clear
11:15 AM 83.8 °F 87.5 °F 69.3 °F 61% 30.20 in 10.0 mi SW 4.6 mph - N/A   Clear
11:35 AM 84.7 °F 88.5 °F 69.1 °F 59% 30.19 in 10.0 mi West 4.6 mph - N/A   Clear
11:55 AM 85.6 °F 89.7 °F 69.4 °F 58% 30.19 in 10.0 mi Calm Calm - N/A   Clear
12:15 PM 86.2 °F 90.7 °F 69.8 °F 58% 30.18 in 10.0 mi SW 4.6 mph - N/A   Clear
12:35 PM 86.5 °F 91.4 °F 70.0 °F 58% 30.18 in 10.0 mi SW 3.5 mph - N/A   Clear
12:55 PM 87.8 °F 92.6 °F 70.0 °F 55% 30.17 in 10.0 mi WSW 5.8 mph - N/A   Clear
1:15 PM 88.3 °F 93.2 °F 70.0 °F 54% 30.17 in 10.0 mi West 4.6 mph - N/A   Clear
1:35 PM 89.2 °F 94.1 °F 69.4 °F 52% 30.16 in 10.0 mi SE 3.5 mph - N/A   Scattered Clouds
1:55 PM 88.3 °F 92.0 °F 68.2 °F 51% 30.15 in 10.0 mi SSW 3.5 mph - N/A   Mostly Cloudy
2:15 PM 88.2 °F 92.1 °F 68.4 °F 52% 30.15 in 10.0 mi Calm Calm - N/A   Mostly Cloudy
2:35 PM 87.8 °F 91.8 °F 68.7 °F 53% 30.14 in 10.0 mi SSE 5.8 mph - N/A   Mostly Cloudy
2:55 PM 87.8 °F 92.2 °F 69.1 °F 54% 30.13 in 10.0 mi ESE 3.5 mph - N/A   Scattered Clouds
3:15 PM 88.3 °F 92.4 °F 68.5 °F 52% 30.12 in 10.0 mi SE 4.6 mph - N/A   Clear
3:35 PM 87.8 °F 91.8 °F 68.7 °F 53% 30.12 in 10.0 mi South 3.5 mph - N/A   Mostly Cloudy
3:55 PM 87.3 °F 91.2 °F 68.9 °F 54% 30.12 in 10.0 mi SSW 3.5 mph - N/A   Mostly Cloudy
4:15 PM 86.9 °F 91.3 °F 69.4 °F 56% 30.11 in 10.0 mi SSE 3.5 mph - N/A   Scattered Clouds
4:35 PM 86.7 °F 91.4 °F 69.6 °F 57% 30.11 in 10.0 mi SSW 4.6 mph - N/A   Scattered Clouds
4:55 PM 87.3 °F 91.6 °F 69.3 °F 55% 30.10 in 10.0 mi South 4.6 mph - N/A   Scattered Clouds
5:15 PM 87.8 °F 91.4 °F 68.2 °F 52% 30.10 in 10.0 mi SSW 4.6 mph - N/A   Scattered Clouds
5:35 PM 87.6 °F 91.1 °F 68.2 °F 52% 30.10 in 10.0 mi SSW 3.5 mph - N/A   Scattered Clouds
5:55 PM 87.3 °F 90.9 °F 68.2 °F 53% 30.09 in 10.0 mi South 3.5 mph - N/A   Scattered Clouds
6:15 PM 86.4 °F 90.4 °F 69.1 °F 56% 30.09 in 10.0 mi SSW 3.5 mph - N/A   Scattered Clouds
6:35 PM 85.3 °F 89.1 °F 69.1 °F 58% 30.08 in 10.0 mi SSW 4.6 mph - N/A   Clear
6:55 PM 83.8 °F 87.5 °F 69.1 °F 61% 30.08 in 10.0 mi Calm Calm - N/A   Scattered Clouds
7:15 PM 82.9 °F 86.7 °F 69.4 °F 64% 30.08 in 10.0 mi SSE 3.5 mph - N/A   Mostly Cloudy
7:35 PM 81.9 °F 85.2 °F 69.3 °F 65% 30.09 in 10.0 mi South 3.5 mph - N/A   Mostly Cloudy
7:55 PM 79.7 °F - 70.0 °F 72% 30.09 in 10.0 mi Calm Calm - N/A   Scattered Clouds
8:15 PM 76.1 °F - 70.5 °F 83% 30.10 in 10.0 mi Calm Calm - N/A   Clear
8:35 PM 74.5 °F - 70.3 °F 87% 30.10 in 7.0 mi Calm Calm - N/A   Clear
8:55 PM 73.6 °F - 70.5 °F 90% 30.10 in 5.0 mi Calm Calm - N/A   Clear
9:15 PM 73.8 °F - 69.8 °F 87% 30.10 in 10.0 mi Calm Calm - N/A   Clear
9:35 PM 72.5 °F - 68.7 °F 88% 30.10 in 5.0 mi Calm Calm - N/A   Clear
9:55 PM 71.1 °F - 68.5 °F 92% 30.10 in 5.0 mi Calm Calm - N/A   Clear
10:15 PM 70.9 °F - 68.2 °F 91% 30.10 in 7.0 mi Calm Calm - N/A   Clear
10:35 PM 72.0 °F - 68.0 °F 87% 30.11 in 10.0 mi South 3.5 mph - N/A   Clear
10:55 PM 73.8 °F - 68.0 °F 82% 30.11 in 10.0 mi South 3.5 mph - N/A   Clear
11:15 PM 73.9 °F - 68.0 °F 82% 30.10 in 10.0 mi South 3.5 mph - N/A   Clear
11:35 PM 73.6 °F - 68.0 °F 83% 30.10 in 10.0 mi South 3.5 mph - N/A   Clear
11:55 PM 73.4 °F - 68.0 °F 83% 30.09 in 10.0 mi South 3.5 mph - N/A   Clear